�N����,����,�~����,�C��,���x,�C��,����,���ϕ���,�ő�u�ԕ���,�ő厞����,���˗�,�I�_���x,�n�����x,�ő啗���N��,DTYPE
"22/05/21","00:10",0.0,17.0,77.1,1008.8,315.7,1.5,2.9,324.1,0.00,13.0,17.7,"00:09:28",1
"22/05/21","00:20",0.0,17.5,75.3,1008.8,328.5,1.6,2.4,328.2,0.00,13.1,17.9,"00:10:16",1
"22/05/21","00:30",0.0,17.9,74.0,1009.0,336.4,1.5,2.4,344.1,0.00,13.2,17.7,"00:20:24",1
"22/05/21","00:40",0.0,17.9,73.5,1008.6,336.5,2.2,2.9,345.3,0.00,13.1,17.7,"00:38:48",1
"22/05/21","00:50",0.0,17.6,73.6,1008.6,321.7,1.7,2.4,335.0,0.00,12.9,17.7,"00:40:24",1
"22/05/21","01:00",0.0,17.6,73.8,1008.8,309.8,0.7,1.6,339.0,0.00,12.9,17.7,"00:50:16",1
"22/05/21","01:10",0.0,17.3,74.1,1008.6,296.7,0.7,1.2,314.2,0.00,12.7,17.6,"01:05:04",1
"22/05/21","01:20",0.0,17.1,74.7,1008.3,294.4,1.1,1.7,318.1,0.00,12.6,17.7,"01:16:56",1
"22/05/21","01:30",0.0,17.0,75.9,1008.3,308.1,0.8,1.9,329.2,0.00,12.8,17.6,"01:20:32",1
"22/05/21","01:40",0.0,16.9,77.0,1008.3,306.0,0.8,1.4,297.6,0.00,12.9,17.6,"01:36:32",1
"22/05/21","01:50",0.0,16.8,77.7,1008.1,305.4,0.8,1.8,316.1,0.00,12.9,17.7,"01:42:32",1
"22/05/21","02:00",0.0,16.8,78.4,1008.1,302.2,1.3,2.2,306.5,0.00,13.1,17.6,"01:58:16",1
"22/05/21","02:10",0.0,16.9,78.4,1008.3,279.2,1.3,2.1,337.3,0.00,13.2,17.5,"02:00:16",1
"22/05/21","02:20",0.0,17.0,78.2,1007.6,264.1,1.1,2.0,262.0,0.00,13.2,17.5,"02:10:48",1
"22/05/21","02:30",0.0,17.0,78.1,1007.4,323.5,1.5,2.0,334.4,0.00,13.2,17.7,"02:24:56",1
"22/05/21","02:40",0.0,16.9,78.5,1007.1,327.7,1.2,1.7,344.2,0.00,13.2,17.6,"02:32:40",1
"22/05/21","02:50",0.0,16.6,79.0,1007.1,299.0,1.2,2.0,324.1,0.00,13.0,17.6,"02:46:32",1
"22/05/21","03:00",0.0,16.6,79.2,1007.1,319.7,1.5,2.1,326.2,0.00,13.0,17.5,"02:53:20",1
"22/05/21","03:10",0.0,16.5,79.4,1007.1,299.8,1.1,1.2,316.0,0.00,13.0,17.4,"03:01:20",1
"22/05/21","03:20",0.0,16.5,79.4,1007.1,296.7,1.3,1.9,309.1,0.00,13.0,17.6,"03:17:04",1
"22/05/21","03:30",0.0,16.6,79.0,1006.9,309.6,1.5,1.9,313.0,0.00,13.0,17.3,"03:20:08",1
"22/05/21","03:40",0.0,16.7,78.7,1006.9,322.0,1.5,1.9,316.3,0.00,13.0,17.2,"03:30:56",1
"22/05/21","03:50",0.0,16.4,79.1,1006.7,279.2,0.6,1.2,333.0,0.00,12.8,17.3,"03:40:40",1
"22/05/21","04:00",0.0,16.1,79.6,1006.7,289.2,0.6,1.0,284.9,0.00,12.6,17.6,"03:55:44",1
"22/05/21","04:10",0.0,16.7,80.4,1007.1,313.5,1.5,2.2,335.8,0.00,13.4,17.5,"04:08:56",1
"22/05/21","04:20",0.0,16.2,81.4,1006.9,310.9,1.3,2.4,339.9,0.00,13.1,17.4,"04:11:04",1
"22/05/21","04:30",0.0,16.1,82.0,1007.1,302.3,1.2,2.0,321.8,0.00,13.1,17.3,"04:28:32",1
"22/05/21","04:40",0.0,16.0,82.2,1006.9,299.5,1.5,2.2,314.0,0.00,13.0,17.3,"04:38:48",1
"22/05/21","04:50",0.0,16.1,82.1,1007.1,276.9,1.2,1.8,314.8,0.00,13.1,17.3,"04:40:24",1
"22/05/21","05:00",0.0,16.2,81.5,1006.9,296.9,1.3,2.2,312.8,0.00,13.1,17.4,"04:50:02",1
"22/05/21","05:10",0.0,16.4,80.8,1007.1,330.2,1.6,2.5,335.2,0.00,13.1,17.3,"05:00:48",1
"22/05/21","05:20",0.0,16.3,80.4,1006.9,305.7,1.2,1.9,315.6,0.00,13.0,17.2,"05:13:20",1
"22/05/21","05:30",0.0,16.1,80.4,1007.1,292.9,0.8,1.3,304.5,0.00,12.8,17.4,"05:24:24",1
"22/05/21","05:40",0.0,16.0,80.5,1007.4,315.7,1.1,1.9,327.4,0.00,12.7,17.1,"05:39:36",1
"22/05/21","05:50",0.0,16.3,81.2,1007.4,329.1,1.6,2.0,342.1,0.00,13.1,17.3,"05:42:24",1
"22/05/21","06:00",0.0,16.1,82.0,1007.1,321.1,1.5,1.9,323.1,0.00,13.1,17.1,"05:55:12",1
"22/05/21","06:10",0.0,16.1,82.5,1007.1,266.3,1.2,2.0,260.2,0.00,13.2,17.0,"06:00:02",1
"22/05/21","06:20",0.0,16.3,82.5,1007.6,268.4,1.5,1.9,262.7,0.00,13.4,17.2,"06:19:28",1
"22/05/21","06:30",0.0,16.4,82.5,1007.6,301.1,1.3,2.5,339.6,0.00,13.5,17.2,"06:20:02",1
"22/05/21","06:40",0.0,16.4,82.7,1007.6,334.3,1.6,2.4,335.6,0.00,13.5,17.1,"06:30:40",1
"22/05/21","06:50",0.0,16.3,83.0,1007.6,281.8,0.7,1.3,323.5,0.00,13.4,17.3,"06:40:08",1
"22/05/21","07:00",0.0,16.2,83.3,1007.6,300.6,0.3,1.0,316.7,0.00,13.4,17.1,"06:56:40",1
"22/05/21","07:10",0.0,16.4,83.7,1007.4,285.4,1.0,1.4,306.7,0.00,13.7,17.2,"07:08:32",1
"22/05/21","07:20",0.0,16.4,84.3,1007.6,296.4,1.3,1.6,319.4,0.00,13.8,17.0,"07:11:36",1
"22/05/21","07:30",0.0,16.4,84.7,1007.4,311.9,1.2,1.6,321.5,0.00,13.9,17.0,"07:21:44",1
"22/05/21","07:40",0.0,16.6,85.1,1007.6,328.5,1.1,1.7,324.2,0.02,14.1,17.1,"07:32:48",1
"22/05/21","07:50",0.0,16.8,85.4,1007.6,324.7,1.2,1.6,325.7,0.03,14.4,17.0,"07:41:20",1
"22/05/21","08:00",0.0,16.9,85.6,1008.1,298.8,1.3,1.8,322.1,0.03,14.5,17.1,"07:52:48",1
"22/05/21","08:10",0.0,17.0,85.6,1007.8,284.5,0.8,1.3,301.7,0.04,14.6,17.2,"08:02:24",1
"22/05/21","08:20",0.0,17.3,85.6,1008.1,288.2,0.8,1.4,264.6,0.05,14.9,17.1,"08:13:44",1
"22/05/21","08:30",0.0,17.5,85.1,1008.1,300.3,1.2,1.8,320.1,0.07,15.0,17.2,"08:22:56",1
"22/05/21","08:40",0.0,18.0,84.0,1007.8,328.7,1.5,2.0,339.3,0.11,15.3,17.2,"08:35:36",1
"22/05/21","08:50",0.0,18.6,83.0,1007.8,330.5,0.3,1.6,349.9,0.08,15.7,17.2,"08:40:08",1
"22/05/21","09:00",0.0,18.7,82.3,1007.4,243.3,0.1,0.5,115.8,0.08,15.7,17.2,"08:59:44",1
"22/05/21","09:10",0.0,18.8,81.6,1007.8,99.5,0.2,0.6,125.5,0.09,15.6,17.2,"09:01:28",1
"22/05/21","09:20",0.0,18.8,80.3,1007.6,271.0,0.2,0.5,336.1,0.06,15.4,17.2,"09:11:36",1
"22/05/21","09:30",0.0,18.5,78.2,1007.6,221.7,0.7,1.2,208.9,0.04,14.7,17.2,"09:23:20",1
"22/05/21","09:40",0.0,18.7,77.4,1007.4,217.9,0.2,0.6,178.3,0.06,14.7,17.0,"09:33:04",1
"22/05/21","09:50",0.0,19.0,76.0,1006.9,347.7,0.6,1.1,332.5,0.08,14.7,17.1,"09:47:04",1
"22/05/21","10:00",0.0,19.3,75.2,1007.1,312.7,0.8,1.3,328.3,0.08,14.8,17.2,"09:56:16",1
"22/05/21","10:10",0.0,19.3,74.7,1007.4,325.2,1.3,2.0,334.4,0.07,14.7,17.2,"10:01:12",1
"22/05/21","10:20",0.0,19.3,74.3,1007.1,343.8,1.1,2.0,337.6,0.07,14.7,17.1,"10:15:20",1
"22/05/21","10:30",0.0,19.5,73.6,1006.9,335.0,0.7,1.7,338.2,0.09,14.7,17.3,"10:29:12",1
"22/05/21","10:40",0.0,19.8,72.6,1006.7,331.7,1.1,2.0,337.3,0.12,14.8,17.2,"10:39:44",1
"22/05/21","10:50",0.0,20.2,71.0,1006.4,342.0,1.1,2.0,335.3,0.16,14.8,17.1,"10:48:32",1
"22/05/21","11:00",0.0,20.4,69.7,1006.4,338.5,1.2,1.8,342.6,0.14,14.7,17.5,"10:51:12",1
"22/05/21","11:10",0.0,20.4,69.3,1006.2,332.8,0.8,1.6,350.5,0.12,14.6,17.3,"11:04:24",1
"22/05/21","11:20",0.0,20.7,68.5,1006.0,335.5,1.0,1.8,305.0,0.17,14.7,17.2,"11:14:08",1
"22/05/21","11:30",0.0,21.5,66.2,1006.0,345.0,1.0,2.0,350.6,0.29,15.0,17.4,"11:21:28",1
"22/05/21","11:40",0.0,22.7,63.5,1005.5,302.4,0.6,1.6,239.4,0.40,15.5,17.3,"11:37:44",1
"22/05/21","11:50",0.0,22.4,60.6,1005.2,353.4,1.1,2.8,354.7,0.28,14.5,17.2,"11:43:12",1
"22/05/21","12:00",0.0,23.1,59.7,1005.0,309.8,0.8,2.6,352.6,0.41,14.9,17.5,"11:59:36",1
"22/05/21","12:10",0.0,22.9,58.4,1005.0,34.1,1.1,2.7,338.6,0.26,14.4,17.4,"12:02:40",1
"22/05/21","12:20",0.0,22.9,58.8,1004.8,97.3,0.6,1.9,161.2,0.20,14.5,17.4,"12:18:32",1
"22/05/21","12:30",0.0,22.6,57.9,1004.8,64.1,0.8,2.1,32.1,0.18,13.9,17.4,"12:26:56",1
"22/05/21","12:40",0.0,22.2,60.0,1004.5,109.4,1.0,2.4,144.3,0.14,14.1,17.4,"12:39:12",1
"22/05/21","12:50",0.0,22.0,60.2,1004.3,127.0,1.1,2.9,162.7,0.18,14.0,17.7,"12:45:12",1
"22/05/21","13:00",0.0,21.5,56.8,1004.1,126.0,1.8,4.4,133.8,0.14,12.6,17.7,"12:59:28",1
"22/05/21","13:10",0.0,21.6,59.4,1004.3,119.0,1.5,4.8,154.8,0.16,13.4,17.6,"13:02:48",1
"22/05/21","13:20",0.0,21.5,58.6,1004.1,121.6,1.5,4.2,133.3,0.18,13.1,17.6,"13:17:12",1
"22/05/21","13:30",0.0,22.1,58.3,1003.8,112.0,1.5,3.9,89.5,0.26,13.6,17.7,"13:24:56",1
"22/05/21","13:40",0.0,22.4,56.9,1003.6,79.1,1.1,2.6,73.1,0.24,13.5,17.8,"13:30:40",1
"22/05/21","13:50",0.0,22.3,58.1,1003.4,52.9,1.1,3.4,355.5,0.23,13.7,17.6,"13:45:28",1
"22/05/21","14:00",0.0,22.3,60.2,1003.6,68.8,1.0,2.8,17.1,0.21,14.3,17.6,"13:54:00",1
"22/05/21","14:10",0.0,22.3,62.2,1003.6,70.5,0.8,2.5,95.1,0.20,14.8,17.7,"14:02:08",1
"22/05/21","14:20",0.0,22.2,62.2,1002.9,63.9,0.8,2.6,60.6,0.20,14.7,18.0,"14:19:28",1
"22/05/21","14:30",0.0,21.7,62.9,1003.1,51.3,1.1,2.2,74.7,0.13,14.4,17.8,"14:21:20",1
"22/05/21","14:40",0.0,21.2,64.3,1003.1,43.7,1.1,2.6,14.0,0.09,14.2,17.6,"14:38:24",1
"22/05/21","14:50",0.0,21.0,66.2,1003.4,35.2,0.6,2.1,78.0,0.07,14.5,17.9,"14:40:08",1
"22/05/21","15:00",0.0,20.7,66.5,1003.4,38.4,0.7,1.9,0.5,0.06,14.3,17.9,"14:58:56",1
"22/05/21","15:10",0.0,20.6,67.1,1003.1,34.2,0.8,2.8,18.0,0.07,14.3,18.0,"15:00:32",1
"22/05/21","15:20",0.0,20.7,67.3,1002.9,17.3,0.7,2.0,74.6,0.08,14.5,17.9,"15:10:48",1
"22/05/21","15:30",0.0,20.7,67.7,1002.9,17.1,1.1,2.9,339.7,0.07,14.6,18.0,"15:22:24",1
"22/05/21","15:40",0.0,20.6,68.4,1002.9,49.4,0.8,2.2,34.4,0.09,14.6,17.9,"15:35:44",1
"22/05/21","15:50",0.0,20.4,68.6,1002.9,42.4,1.0,2.6,32.9,0.08,14.5,18.1,"15:48:24",1
"22/05/21","16:00",0.0,20.1,69.0,1002.9,76.0,0.8,2.1,89.9,0.05,14.3,18.0,"15:59:36",1
"22/05/21","16:10",0.0,20.1,69.8,1002.9,92.6,0.7,2.6,123.1,0.06,14.5,17.9,"16:07:12",1
"22/05/21","16:20",0.0,20.1,70.0,1002.6,85.3,1.0,2.7,132.1,0.08,14.5,18.1,"16:16:16",1
"22/05/21","16:30",0.0,20.1,70.3,1002.6,118.2,0.7,1.4,125.9,0.08,14.6,18.0,"16:22:56",1
"22/05/21","16:40",0.0,20.0,70.3,1002.9,67.7,0.7,2.7,33.7,0.06,14.5,18.1,"16:39:52",1
"22/05/21","16:50",0.0,19.9,70.7,1002.6,84.0,0.7,1.8,11.5,0.04,14.5,18.2,"16:40:08",1
"22/05/21","17:00",0.0,19.7,71.3,1003.1,111.6,0.8,2.6,136.2,0.04,14.4,18.2,"16:51:12",1
"22/05/21","17:10",0.0,19.5,71.7,1002.6,89.6,0.6,1.8,115.2,0.03,14.3,18.0,"17:03:52",1
"22/05/21","17:20",0.0,19.6,72.3,1002.4,40.9,0.5,1.1,59.1,0.03,14.5,18.0,"17:14:40",1
"22/05/21","17:30",0.0,19.4,72.5,1002.4,125.8,0.6,2.1,137.5,0.02,14.4,18.0,"17:23:52",1
"22/05/21","17:40",0.0,19.2,72.9,1002.2,29.7,0.6,2.1,340.4,0.01,14.3,18.1,"17:37:20",1
"22/05/21","17:50",0.0,19.1,73.1,1002.6,60.4,0.5,1.1,111.4,0.00,14.2,18.0,"17:42:16",1
"22/05/21","18:00",0.0,19.0,73.5,1002.9,3.0,0.5,1.3,62.1,0.00,14.2,18.1,"17:50:08",1
"22/05/21","18:10",0.0,18.9,73.7,1002.9,358.6,0.7,1.7,344.5,0.00,14.1,18.2,"18:00:48",1
"22/05/21","18:20",0.0,18.9,73.9,1003.1,343.8,0.7,1.4,43.7,0.00,14.2,17.8,"18:11:20",1
"22/05/21","18:30",0.0,18.9,74.2,1002.9,358.4,0.7,1.7,352.1,0.00,14.2,18.1,"18:20:56",1
"22/05/21","18:40",0.0,18.8,74.6,1003.1,29.9,0.3,1.4,101.7,0.00,14.2,17.9,"18:31:12",1
"22/05/21","18:50",0.0,18.7,75.0,1002.9,354.2,0.5,1.0,9.4,0.00,14.2,18.0,"18:46:08",1
"22/05/21","19:00",0.0,18.6,75.3,1002.6,337.1,0.5,1.0,342.2,0.00,14.2,18.0,"18:52:48",1
"22/05/21","19:10",0.0,18.6,75.7,1002.9,337.9,0.6,1.3,359.4,0.00,14.3,17.9,"19:06:00",1
"22/05/21","19:20",0.0,18.5,76.7,1002.6,327.0,1.1,1.8,341.5,0.00,14.4,18.0,"19:16:08",1
"22/05/21","19:30",0.0,18.3,77.9,1002.9,324.1,1.2,1.6,337.4,0.00,14.4,18.0,"19:29:52",1
"22/05/21","19:40",0.0,18.0,78.9,1002.9,331.4,1.3,1.8,344.4,0.00,14.3,17.8,"19:30:48",1
"22/05/21","19:50",0.0,17.9,79.6,1002.9,330.1,1.3,1.9,338.7,0.00,14.4,18.1,"19:42:08",1
"22/05/21","20:00",0.0,17.7,80.2,1002.6,278.7,1.0,1.6,323.3,0.00,14.3,17.8,"19:51:20",1
"22/05/21","20:10",0.0,17.5,80.6,1002.9,298.1,0.3,0.9,258.3,0.00,14.2,17.9,"20:00:16",1
"22/05/21","20:20",0.0,17.4,80.9,1002.9,310.6,0.8,1.4,319.6,0.00,14.1,18.0,"20:16:24",1
"22/05/21","20:30",0.0,17.5,81.3,1002.9,292.5,0.8,1.4,323.5,0.00,14.3,17.8,"20:20:32",1
"22/05/21","20:40",0.0,17.5,81.8,1002.6,327.9,1.6,2.1,332.4,0.00,14.4,17.9,"20:37:36",1
"22/05/21","20:50",0.0,17.4,82.2,1002.9,299.9,1.2,1.9,336.5,0.00,14.4,17.9,"20:40:16",1
"22/05/21","21:00",0.0,17.4,82.1,1003.1,298.1,1.5,2.2,314.2,0.00,14.4,17.8,"20:55:12",1
"22/05/21","21:10",0.0,17.4,81.9,1003.1,296.7,1.2,1.8,327.6,0.00,14.3,18.0,"21:04:32",1
"22/05/21","21:20",0.0,17.5,81.8,1003.1,293.0,1.0,1.4,267.0,0.00,14.4,17.7,"21:16:48",1
"22/05/21","21:30",0.0,17.4,81.9,1003.1,319.5,1.3,1.9,258.6,0.00,14.3,17.7,"21:20:56",1
"22/05/21","21:40",0.0,17.4,82.1,1002.9,318.5,1.3,2.0,335.6,0.00,14.4,17.6,"21:39:20",1
"22/05/21","21:50",0.0,17.2,82.6,1002.9,320.5,1.5,1.9,323.2,0.00,14.3,17.8,"21:40:24",1
"22/05/21","22:00",0.0,17.0,83.0,1002.9,318.5,1.5,2.0,325.3,0.00,14.1,17.7,"21:54:00",1
"22/05/21","22:10",0.0,16.8,83.4,1003.1,295.0,0.8,1.4,317.4,0.00,14.0,17.9,"22:09:48",1
"22/05/21","22:20",0.0,16.6,83.8,1003.4,320.1,1.5,1.9,326.8,0.00,13.9,17.7,"22:14:08",1
"22/05/21","22:30",0.0,16.5,84.3,1002.9,297.2,1.1,1.2,275.2,0.00,13.9,17.7,"22:26:16",1
"22/05/21","22:40",0.0,16.3,84.8,1002.9,299.7,1.3,2.0,323.7,0.00,13.8,17.9,"22:39:44",1
"22/05/21","22:50",0.0,16.2,85.3,1003.4,318.6,2.0,2.6,323.1,0.00,13.8,17.9,"22:45:28",1
"22/05/21","23:00",0.0,16.1,85.7,1002.9,317.6,1.6,1.8,324.9,0.00,13.7,17.7,"22:54:00",1
"22/05/21","23:10",0.0,16.0,86.1,1002.9,314.7,1.3,1.7,323.8,0.00,13.7,17.6,"23:07:52",1
"22/05/21","23:20",0.0,15.7,86.3,1002.6,286.4,0.8,1.6,309.3,0.00,13.5,17.6,"23:10:08",1
"22/05/21","23:30",0.0,15.8,86.8,1002.9,288.7,1.2,1.7,315.9,0.00,13.6,17.5,"23:22:32",1
"22/05/21","23:40",0.0,15.8,87.0,1002.6,288.9,1.1,1.6,296.7,0.00,13.7,17.5,"23:34:24",1
"22/05/21","23:50",0.0,15.7,87.3,1002.2,274.3,0.8,1.0,290.8,0.00,13.6,17.7,"23:41:36",1
"22/05/21","24:00",0.0,15.8,87.5,1002.6,293.5,1.5,2.1,314.5,0.00,13.8,17.6,"23:58:40",1
